Home   Weather   Hesperia   Past weeks
Flag for USA

Past Weather in Hesperia, California, USA — Yesterday and Last 2 Weeks

Now
70 °F

Broken clouds.


Feels Like: 70 °F
Forecast: 83 / 56 °F
Wind: 7 mph from West

Location: Norton Air Force Base / San Bern

Current Time: Jun 25, 2019 at 12:57:57 pm

Latest Report: Jun 25, 2019 at 10:50 am


Visibility: 2 mi

Pressure: 29.92 "Hg (26.73 "Hg at 971m altitude)

Humidity: 60%

Dew Point: 55 °F

Location of HesperiaLocation

Past Weather in Hesperia — Graph

°F

Hesperia Temperature Yesterday

Maximum temperature yesterday: 91 °F (at 3:50 pm)
Minimum temperature yesterday: 61 °F (at 4:04 am)
Average temperature yesterday: 70 °F

High & Low Weather Summary for the Past Weeks

 TemperatureHumidityPressure
High108 °F (Jun 11, 2:50 pm)88% (Jun 13, 7:00 am)30.04 "Hg (Jun 13, 7:00 am)
Low58 °F (Jun 23, 5:40 am)7% (Jun 10, 12:50 pm)29.78 "Hg (Jun 25, 7:49 am)
Average71 °F60%29.94 "Hg
* Reported Jun 10 10:55 am — Jun 25 10:50 am, Hesperia. Weather by CustomWeather, © 2019

Note: Actual official high and low records may vary slightly from our data, if they occured in-between our weather recording intervals... More about our weather records

Advertising

Hesperia Weather History for the Previous 24 Hours

Scroll right to see more
 ConditionsComfort  
Time TempWeatherWind HumidityBarometerVisibility
10:50 am
Tue, Jun 25
70 °FBroken clouds.7 mph60%29.92 "Hg2 mi
9:50 am68 °FBroken clouds.7 mph64%29.90 "Hg2 mi
8:55 am64 °FOvercast.No wind73%29.90 "Hg2 mi
7:49 am64 °FOvercast.No wind73%29.78 "Hg2 mi
6:50 am63 °FOvercast.3 mph77%29.88 "Hg2 mi
5:40 am63 °FOvercast.No wind79%29.88 "Hg5 mi
5:21 am63 °FOvercast.3 mph79%29.88 "Hg5 mi
5:03 am63 °FOvercast.No wind79%29.88 "Hg5 mi
4:20 am63 °FOvercast.3 mph79%29.88 "Hg7 mi
3:41 am62 °FOvercast.5 mph80%29.87 "Hg7 mi
3:23 am62 °FOvercast.5 mph80%29.88 "Hg7 mi
3:00 am62 °FOvercast.5 mph81%29.88 "Hg7 mi
2:20 am61 °FPassing clouds.5 mph81%29.88 "Hg7 mi
2:01 am62 °FClear.6 mph81%29.87 "Hg7 mi
1:43 am61 °FClear.6 mph80%29.87 "Hg7 mi
1:20 am62 °FClear.6 mph79%29.88 "Hg7 mi
1:01 am62 °FClear.5 mph79%29.88 "Hg7 mi
12:21 am63 °FClear.3 mph77%29.89 "Hg7 mi
12:03 am63 °FClear.6 mph76%29.89 "Hg7 mi
11:40 pm
Mon, Jun 24
64 °FClear.5 mph75%29.89 "Hg7 mi
11:00 pm65 °FClear.7 mph71%29.89 "Hg10 mi
10:23 pm67 °FClear.5 mph67%29.90 "Hg10 mi
10:00 pm68 °FClear.8 mph65%29.90 "Hg10 mi
9:40 pm69 °FClear.8 mph63%29.89 "Hg10 mi
8:50 pm73 °FClear.5 mph53%29.86 "Hg7 mi
7:50 pm77 °FPassing clouds.12 mph47%29.85 "Hg7 mi
6:50 pm84 °FSunny.10 mph35%29.84 "Hg6 mi
5:50 pm86 °FSunny.13 mph31%29.83 "Hg6 mi
4:50 pm88 °FSunny.9 mph29%29.84 "Hg6 mi
3:50 pm91 °FSunny.7 mph23%29.85 "Hg6 mi
2:50 pm90 °FSunny.7 mph26%29.87 "Hg6 mi
1:50 pm86 °FSunny.9 mph33%29.89 "Hg6 mi
12:50 pm84 °FSunny.8 mph35%29.90 "Hg6 mi
Weather by CustomWeather, © 2019

See weather overview